User: anonymous   Login
Location: Arbon
(43.0005°N, 0.7472°E)
Time: 16:37:39
(UTC+00:00)
Language:

Vanguard 2 Rocket - Orbit

View from above orbital plane
View from above orbital plane
View from above satellite
View from above satellite

Ground track
Ground track

The orbit data is extracted from the following two-line orbital elements,

1 00012U 59001B   21135.82430761 -.00000089  00000-0 -49396-4 0  9995
2 00012  32.8993 267.9856 1666407  23.4820 343.3711 11.44397785560643
Epoch (UTC): 15 May 2021 19:47:00
Eccentricity: 0.1666407
inclination: 32.8993°
perigee height: 554 km
apogee height: 3326 km
right ascension of ascending node: 267.9856°
argument of perigee: 23.4820°
revolutions per day: 11.44397785
mean anomaly at epoch: 343.3711°
orbit number at epoch: 56064

The dashed part of the orbit path shows where the satellite is in the earth's shadow,  

DLR